Regional Weather Roundup
Issued by NWS

Home | Current Version | Previous Version | Graphics & Text | Print | Product List | Glossary On
Versions: 1 2 3 4 5 6 7 8 9 10 11 12 13 14 15 16 17 18 19 20 21 22 23 24 25 26 27
000
ASUS45 KBOI 170010
RWRID

IDAHO REGIONAL WEATHER ROUNDUP
NATIONAL WEATHER SERVICE BOISE ID
500 PM MST TUE JAN 16 2018

NOTE: "FAIR" INDICATES FEW OR NO CLOUDS BELOW 12000 FEET
WITH NO SIGNIFICANT WEATHER AND/OR OBSTRUCTIONS TO VISIBILITY

IDZ012-014-170100-
SOUTHWEST IDAHO


CITY           SKY/WX    TMP DP  RH WIND       PRES   REMARKS
BOISE          CLOUDY    43  36  76 N8        30.34S
CALDWELL       CLOUDY    43  37  79 MISG      30.37R
MOUNTAIN HOME  PTCLDY    42  39  89 NE7       30.33S
$$

IDZ016-017-170100-
SOUTHCENTRAL IDAHO


CITY           SKY/WX    TMP DP  RH WIND       PRES   REMARKS
BURLEY         CLOUDY    40  32  73 SW10G16   30.29R WCI  33
JEROME         LGT RAIN  38  32  79 S6        30.31R WCI  33
TWIN FALLS     CLOUDY    37  34  89 S9        30.31R WCI  30
$$

IDZ019>023-170100-
SOUTHEAST IDAHO


CITY           SKY/WX    TMP DP  RH WIND       PRES   REMARKS
IDAHO FALLS    CLEAR     34  26  72 N6        30.31R WCI  29
POCATELLO      PTCLDY    38  27  64 N5        30.29R WCI  34
REXBURG        CLEAR     32  22  66 CALM      30.30S
$$

IDZ006-010-011-018-031-032-170100-
CENTRAL IDAHO MOUNTAINS


CITY           SKY/WX    TMP DP  RH WIND       PRES   REMARKS
MCCALL         CLOUDY    32  31  96 NE3       30.29S
HAILEY         MOCLDY    36  27  69 SE7       30.28S WCI  30
STANLEY          N/A     25  19  78 CALM      30.28S
SALMON         CLOUDY    30  24  78 N3        30.36R
CHALLIS        CLOUDY    27  22  81 NE5       30.32S WCI  22
$$

IDZ002-004-006-007-026-170100-
NORTHERN IDAHO


CITY           SKY/WX    TMP DP  RH WIND       PRES   REMARKS
LEWISTON       MOCLDY    46  41  82 CALM      30.32R
LOWELL           N/A     37  36  96 CALM      30.38R
COEUR D`ALENE  CLOUDY    36  35  96 NE5       30.30R WCI  32
MULLAN PASS    FLURRIES  29  28  96 SW9       30.22R WCI  20
$$




USA.gov is the U.S. government's official web portal to all federal, state and local government web resources and services.